Lapse_Rate
5.8 5.7 5.7 5.8 5.7 5.7 5.8 5.6 5.6 5.7 5.8 6.0 6.0 6.2 6.3 6.3 6.2 6.2 6.5 6.4 6.6 6.5 6.4 6.2 6.5 6.5 6.6 6.4 6.2 6.2 6.6 7.4 8.1 9.2 9.1 6.7 6.4 6.7 6.3 6.4 6.6 6.6 6.1 5.8 6.3
6.0 5.9 5.8 5.8 5.8 5.9 6.0 5.9 5.8 5.8 5.6 5.8 6.0 6.1 6.3 6.4 6.1 6.1 6.6 6.3 6.4 6.4 6.5 6.3 5.5 5.7 5.9 6.2 6.4 6.4 7.0 8.0 7.3 6.8 7.0 6.6 6.7 6.4 6.4 6.7 6.9 6.8 5.8 5.9 6.2
6.2 6.2 5.9 5.9 5.8 5.9 6.0 5.9 6.1 5.9 5.8 5.7 5.9 6.2 6.1 6.4 6.3 6.7 6.4 6.4 6.5 6.5 6.4 6.4 6.2 6.0 6.1 6.4 6.6 6.7 6.9 7.5 7.2 7.0 7.6 7.4 7.1 6.6 6.6 6.9 6.8 6.5 6.6 6.3 6.3
6.3 6.3 6.3 6.1 5.8 5.9 6.0 6.1 6.0 6.2 6.0 6.0 6.0 6.0 6.2 6.3 5.9 6.3 5.9 6.1 6.4 6.5 6.5 6.4 6.2 5.7 6.0 6.5 6.8 6.9 7.0 7.0 6.8 6.6 7.2 7.2 7.0 7.1 6.6 6.8 6.6 6.3 6.5 6.3 5.8
6.3 6.5 6.6 6.4 6.2 5.9 6.0 6.0 6.2 6.4 6.3 6.3 6.5 6.4 6.2 6.5 5.7 6.5 6.2 6.0 6.3 6.5 6.6 6.4 6.3 5.9 6.1 6.6 6.9 6.8 6.8 6.9 6.6 6.8 6.8 7.0 7.1 6.9 7.0 6.5 6.5 6.5 6.5 6.2 5.9
6.1 6.2 6.2 6.1 6.2 6.0 6.0 6.3 6.3 6.2 6.2 6.4 6.4 6.4 6.2 6.3 5.8 6.5 6.2 6.4 6.2 6.3 6.5 6.5 6.2 6.1 6.4 6.4 6.7 6.8 6.6 6.7 6.5 6.5 6.3 6.8 7.2 6.9 6.9 6.6 6.8 6.6 6.2 6.2 5.9
5.9 5.9 6.1 6.4 6.3 6.0 6.0 6.2 6.1 6.3 6.0 6.4 6.2 6.0 6.2 6.3 6.0 6.2 6.3 6.1 6.3 6.5 6.3 6.0 6.7 6.6 6.2 6.3 6.4 6.7 6.3 6.5 6.8 6.6 6.1 6.6 7.7 7.3 6.8 6.8 7.0 6.4 6.3 6.1 5.9
6.0 6.1 5.9 6.1 6.2 6.1 6.0 5.9 6.0 6.2 6.1 5.9 6.1 5.7 6.0 5.9 6.1 5.9 5.7 5.9 6.2 6.6 6.3 6.2 6.6 6.5 6.4 6.2 6.5 6.5 6.5 6.9 7.3 6.5 6.0 6.8 7.5 7.0 6.8 6.7 6.6 6.3 6.1 5.9 5.8
5.9 5.8 6.0 5.9 6.0 5.8 5.6 5.7 5.9 5.9 5.9 5.7 5.7 5.7 5.9 6.2 6.1 5.7 5.9 5.6 6.0 6.4 6.4 6.3 6.3 6.2 5.8 6.3 6.3 6.8 7.0 7.4 7.1 6.5 6.3 6.5 6.9 7.5 7.0 6.6 6.4 6.2 6.1 5.7 5.5
6.1 6.0 5.7 5.7 6.0 6.0 5.7 5.5 5.6 6.0 5.6 5.6 5.8 5.5 6.1 6.0 5.8 6.1 6.1 6.0 5.8 6.1 6.1 6.2 5.9 5.9 6.1 6.2 6.9 7.6 7.5 7.5 7.7 7.3 6.0 6.3 6.5 7.0 7.1 6.7 6.5 6.1 5.7 5.4 5.2
6.2 6.2 5.9 5.7 5.9 6.0 6.0 5.8 5.7 5.9 6.1 6.2 5.7 5.6 5.5 5.7 5.6 5.8 5.9 6.0 5.8 5.6 5.8 5.5 5.6 6.0 6.6 6.6 7.1 6.9 7.2 7.5 7.5 7.4 6.4 6.8 6.7 7.0 7.2 6.6 6.5 6.0 5.2 4.9 4.9
6.2 6.2 6.1 6.0 5.9 5.9 6.0 5.7 6.0 5.9 5.7 5.9 6.1 5.6 5.7 5.3 5.4 5.8 5.1 6.0 5.8 5.5 5.5 5.7 5.8 6.1 6.4 6.7 6.5 6.5 6.8 7.2 7.5 7.2 6.5 6.9 6.9 7.4 7.1 6.9 6.3 5.4 5.0 5.0 6.0
5.9 5.9 6.1 5.9 5.8 5.5 5.9 5.6 5.7 6.0 5.8 5.9 6.0 5.8 6.0 5.3 5.0 5.3 5.3 5.7 5.4 5.5 5.8 6.1 6.4 6.3 6.2 6.1 6.2 6.2 6.3 6.5 6.6 6.5 6.2 6.6 6.8 7.7 6.9 6.7 5.8 4.8 5.1 5.6 5.8
5.7 5.8 5.8 6.0 5.8 5.8 5.6 5.9 6.2 6.5 6.0 5.6 6.1 6.7 5.7 5.6 5.0 5.8 5.2 5.7 5.7 6.0 6.3 6.4 6.4 5.6 6.3 5.9 5.8 6.0 5.9 6.0 5.9 6.0 7.0 7.3 7.5 8.7 7.7 6.8 5.5 4.6 5.5 6.0 5.9
5.8 5.7 5.8 5.6 5.7 5.7 6.1 6.0 6.0 6.3 6.5 6.1 6.1 6.0 5.8 5.9 6.1 5.7 6.2 5.1 5.9 6.2 6.3 6.4 6.4 5.4 5.9 6.0 5.8 6.0 5.4 5.8 5.8 5.9 6.1 6.9 7.8 8.8 9.1 8.3 5.9 5.2 5.4 6.2 5.8
6.0 5.9 5.8 5.7 5.7 5.7 5.8 6.0 5.8 6.3 6.1 6.7 5.9 5.9 5.7 5.7 5.4 6.3 6.1 5.5 5.7 6.1 6.2 6.4 6.3 5.6 5.8 5.8 5.7 5.5 5.7 5.7 5.8 6.1 6.4 6.9 7.7 9.1 9.4 7.4 5.8 5.3 6.1 6.3 6.1
6.3 6.2 6.1 5.9 6.0 5.8 5.4 6.0 6.0 6.6 6.6 6.7 6.6 5.8 5.8 5.9 5.5 5.8 6.1 5.8 5.8 6.0 6.3 6.4 6.1 5.7 5.6 5.6 5.5 5.6 5.4 6.3 6.7 6.7 7.4 7.5 8.1 9.3 7.5 6.3 5.7 5.4 5.9 6.2 5.9
6.6 6.5 6.6 6.5 6.3 6.0 5.5 6.2 6.4 6.2 6.2 6.7 6.3 6.1 6.2 6.2 5.6 6.1 6.1 6.0 5.8 6.5 7.2 6.6 6.4 5.7 5.2 5.5 5.8 5.6 6.1 6.8 6.7 7.8 9.2 8.5 8.4 8.7 7.1 5.3 4.6 4.8 5.6 5.6 5.5
6.7 6.8 6.4 6.7 6.8 6.5 5.9 6.4 6.4 5.9 6.5 6.6 6.5 6.9 6.2 6.3 6.3 6.5 6.0 5.8 6.3 6.5 7.0 7.4 7.1 6.6 5.3 5.4 5.9 6.0 5.8 6.1 6.3 6.9 7.1 7.9 8.8 8.6 6.7 5.6 4.9 5.4 5.6 5.6 5.7
6.4 6.4 6.5 7.1 6.8 6.2 6.1 6.3 6.2 6.3 6.3 6.8 6.6 6.7 6.6 6.4 6.7 6.7 6.4 6.2 6.4 6.7 6.8 7.1 7.5 6.0 5.2 5.4 5.6 5.8 5.9 6.1 6.4 6.7 7.6 8.4 9.6 8.8 6.8 5.2 5.1 5.9 5.9 5.9 5.7
6.4 6.7 6.9 6.7 6.2 6.3 6.6 6.1 6.1 6.5 6.4 6.8 6.8 6.9 6.9 7.6 7.4 7.1 6.5 6.6 6.8 6.9 6.6 6.7 6.9 6.3 5.4 5.1 6.0 5.4 5.5 5.9 6.6 7.0 7.5 7.9 9.1 7.4 6.4 5.2 6.5 6.5 6.1 5.7 5.4
6.9 6.9 7.1 6.6 6.8 6.2 6.4 6.6 6.3 6.5 6.9 6.9 6.8 6.8 6.6 7.1 7.7 7.3 6.8 6.9 6.7 7.2 6.2 6.4 6.2 6.6 5.6 5.9 5.9 5.8 5.6 6.0 6.1 7.1 7.0 7.5 7.8 7.0 5.9 5.6 6.2 6.0 5.7 5.3 5.3
7.2 7.1 7.1 6.9 6.8 6.7 6.8 6.5 6.5 6.6 6.8 6.8 6.7 6.5 6.7 7.0 7.0 6.6 6.9 6.9 6.6 6.2 6.1 5.8 5.6 6.0 6.4 5.4 5.5 5.5 6.1 6.1 6.4 6.3 6.2 7.6 8.4 7.1 5.5 5.3 5.8 5.9 5.6 5.5 5.4
7.4 7.6 7.5 7.0 7.0 6.8 6.8 6.5 6.4 6.3 6.5 6.8 6.9 6.9 6.9 6.9 6.4 6.5 6.7 6.5 5.9 6.0 5.6 5.7 5.9 6.1 6.7 6.4 5.8 5.4 6.0 6.4 6.3 6.1 6.8 7.2 8.1 8.8 5.9 6.1 6.3 6.3 6.0 5.6 5.4
7.1 7.8 7.8 7.3 6.9 7.0 6.6 6.8 6.6 6.4 6.6 6.8 6.9 6.9 6.8 6.8 6.6 6.2 6.7 6.0 5.6 5.9 5.4 5.6 5.6 6.0 6.2 6.2 6.0 5.6 5.8 6.5 6.3 6.1 6.0 7.1 7.1 6.9 6.4 6.4 6.2 6.2 5.8 5.4 5.4
7.3 7.5 7.7 7.7 7.5 7.6 7.1 6.9 7.1 6.7 6.8 6.6 6.7 6.6 6.9 6.7 6.6 6.6 6.3 6.2 5.9 5.1 4.9 5.3 5.5 6.0 5.8 5.9 6.1 6.2 6.2 6.5 6.4 6.1 6.2 6.6 7.1 6.3 6.2 6.1 5.8 5.9 5.6 5.4 5.4
7.4 7.8 7.6 7.7 7.4 6.8 6.8 6.8 6.8 7.0 6.9 6.9 6.9 7.2 7.4 6.8 7.1 6.9 6.6 6.6 6.0 5.2 5.0 5.8 5.7 5.7 5.8 6.1 6.3 6.0 6.0 6.1 6.3 6.1 6.1 6.3 6.7 6.5 6.3 6.0 5.9 5.9 5.8 5.5 5.2
Wind_Speed
9 9 9 9 10 10 12 15 17 17 18 18 20 22 23 24 27 7 8 3 3 9 9 12 9 8 8 10 7 13 8 11 15 15 11 12 9 8 6 9 7 4 5 10 11
9 11 11 10 10 10 12 14 16 19 20 19 20 21 21 23 11 16 5 5 5 8 9 10 10 4 7 8 5 7 9 11 8 12 12 10 8 9 6 10 9 4 12 9 11
11 11 12 11 12 11 12 14 16 17 20 22 21 21 21 18 9 2 6 6 2 8 12 12 10 11 11 13 10 10 13 14 8 8 9 9 8 10 9 8 11 8 10 9 9
14 13 12 11 12 11 12 14 15 17 19 21 23 22 25 5 6 7 7 4 4 10 12 11 9 12 12 12 12 12 11 8 9 7 7 8 9 8 9 8 12 10 5 7 11
17 16 14 13 11 13 12 13 15 16 16 20 23 23 11 7 9 8 7 5 7 11 10 9 8 11 13 12 9 7 12 3 6 3 6 7 10 9 9 3 8 6 5 9 8
20 18 17 16 14 14 12 11 15 17 17 16 20 25 8 13 3 12 8 4 8 7 10 7 7 8 9 13 8 10 8 10 10 10 3 9 14 10 9 8 2 6 7 8 6
21 21 20 18 16 14 13 12 15 17 18 15 17 8 11 17 4 7 5 7 8 6 10 8 6 7 6 8 7 8 13 14 17 13 5 5 16 18 4 4 5 8 8 6 9
21 21 21 19 17 13 12 13 17 18 20 17 9 8 8 11 7 10 9 8 5 6 7 8 6 10 9 9 7 12 14 13 10 14 7 2 10 10 8 2 8 7 4 7 8
19 22 20 20 17 14 10 12 18 20 19 17 5 8 10 1 9 12 12 10 7 5 5 4 7 10 6 8 10 13 12 14 9 12 7 9 9 11 11 4 5 3 6 8 11
13 20 19 19 18 13 8 9 16 16 13 12 9 9 16 10 7 12 8 10 5 7 7 8 7 8 8 10 11 9 17 11 3 9 9 8 13 13 7 5 2 2 9 11 12
12 12 19 20 17 14 4 5 3 4 10 11 9 7 3 13 4 10 12 9 11 7 12 13 9 12 15 15 11 4 9 11 8 2 2 10 12 16 11 4 5 8 10 12 18
12 11 12 19 15 14 2 2 3 4 7 16 23 24 19 8 10 13 12 11 12 14 15 13 12 16 8 2 3 7 11 13 13 6 3 12 15 15 5 7 7 9 12 16 17
11 9 8 14 20 7 3 4 1 4 3 10 18 21 21 19 19 15 17 17 14 14 17 16 7 2 8 6 7 11 14 13 8 12 13 18 19 17 11 9 11 15 16 17 14
12 6 2 26 7 6 4 7 7 1 2 7 9 14 24 18 22 23 20 17 15 17 16 15 17 8 7 10 9 12 7 3 6 8 9 6 10 10 18 15 13 14 13 11 13
13 2 23 23 9 5 7 14 7 1 5 3 9 2 13 27 4 20 23 19 21 18 13 14 10 8 13 14 11 5 2 6 10 12 15 16 10 12 17 15 12 11 10 12 13
13 5 24 3 1 4 15 12 3 2 9 7 6 10 15 24 20 7 23 18 15 18 19 16 6 10 14 7 4 5 7 12 14 13 11 21 16 8 7 10 9 9 10 12 14
13 10 16 10 4 17 16 6 2 8 3 9 9 12 17 20 23 15 23 21 15 15 20 15 15 9 4 7 5 8 9 4 8 8 8 7 4 7 17 12 10 9 11 12 14
17 16 16 12 20 20 4 2 12 14 19 2 11 15 18 22 23 21 21 20 24 19 11 14 11 18 13 16 12 14 15 7 5 8 6 9 5 7 16 14 14 12 13 13 14
17 9 5 7 23 12 5 8 6 19 17 11 13 14 19 22 12 21 21 19 20 21 13 14 14 17 14 15 8 8 6 5 3 11 5 8 7 12 15 11 13 11 11 12 14
9 7 11 19 26 7 7 12 5 19 22 14 13 16 20 23 22 20 16 14 22 23 17 6 5 15 8 3 12 8 4 3 4 4 10 10 12 8 8 8 10 9 12 13 14
9 4 4 26 10 7 9 11 13 19 22 16 19 16 21 19 23 16 13 10 19 19 19 8 5 12 12 11 13 9 8 5 5 7 4 5 1 7 10 11 9 13 14 13 13
8 7 11 13 9 3 10 17 23 15 20 19 14 21 19 17 17 20 19 13 6 16 17 7 3 7 18 13 18 14 13 14 3 6 7 4 4 14 14 12 10 9 11 13 14
5 8 10 12 10 9 15 25 24 20 18 19 16 20 18 17 11 17 17 12 1 4 8 8 4 4 11 8 9 8 15 16 13 4 9 8 3 14 14 11 10 9 12 12 14
4 7 5 8 13 21 23 23 26 24 26 24 23 19 21 19 12 9 13 6 5 12 10 7 3 8 10 6 9 11 17 16 13 7 7 10 10 11 15 11 12 14 14 13 13
9 6 7 7 15 24 26 20 27 25 24 19 22 25 19 18 19 23 17 9 4 4 0 4 4 9 9 8 7 11 15 19 12 14 6 7 11 10 11 10 10 10 12 14 16
10 7 11 13 25 24 23 27 28 27 24 30 26 28 24 22 22 19 21 14 11 10 14 3 3 11 9 11 10 10 12 13 15 17 18 16 14 6 8 8 9 10 12 14 15
11 13 11 16 20 18 24 30 32 26 25 25 27 22 21 25 19 14 17 13 10 10 5 4 3 5 6 11 12 15 10 12 4 10 10 10 8 6 7 9 9 8 10 13 14
Wind_Direction
280 285 294 306 317 331 336 334 336 336 335 336 334 333 334 332 319 247 263 69 27 347 325 276 253 247 249 263 258 280 263 262 269 352 81 55 35 345 11 274 267 319 69 27 356
268 279 290 296 303 321 328 330 333 333 331 332 332 330 331 335 305 274 116 117 34 331 297 293 301 280 264 250 239 236 265 272 40 14 8 13 357 329 346 319 297 106 53 22 356
249 259 272 288 297 308 318 322 329 330 330 327 327 326 324 327 286 260 135 95 356 295 279 292 288 276 277 275 246 245 249 295 356 50 1 340 327 2 305 301 26 29 8 354 320
236 246 251 269 285 293 307 315 323 329 327 325 322 323 314 267 319 111 133 89 273 283 279 273 269 268 265 267 243 262 269 291 316 28 342 326 340 297 287 321 346 58 12 317 350
239 238 242 250 261 279 293 308 315 320 322 324 322 322 320 244 259 151 147 188 261 255 275 292 281 277 264 274 272 262 263 237 281 275 264 311 283 280 282 65 42 34 331 342 357
239 240 237 242 248 264 282 299 307 311 314 320 320 320 266 269 91 150 207 192 258 268 274 265 281 340 305 289 285 303 311 294 255 244 222 285 282 262 268 136 45 342 344 351 343
237 239 235 233 239 253 274 292 298 303 304 310 318 309 278 257 259 180 207 238 265 275 290 271 292 275 323 269 276 284 275 265 245 234 217 352 278 223 94 83 317 335 356 357 15
234 232 238 232 232 239 265 285 293 295 298 301 306 292 262 294 291 233 252 232 252 261 268 309 289 276 277 298 262 259 255 262 284 151 134 190 283 121 157 250 323 340 329 16 14
242 236 229 229 227 232 249 283 290 288 289 285 271 208 268 174 235 248 235 241 195 250 258 290 264 245 211 244 262 230 251 239 176 162 153 203 289 303 301 353 319 348 23 26 25
314 245 233 225 220 212 236 274 286 308 258 250 251 287 238 243 222 221 199 254 203 227 234 229 233 235 213 233 242 275 209 233 250 174 191 275 283 278 308 307 37 67 47 27 13
295 292 230 224 207 176 191 266 324 223 221 229 199 228 314 216 143 209 190 197 218 220 233 200 216 233 241 222 238 318 290 293 276 97 344 281 300 280 279 131 147 66 39 20 29
293 308 259 217 174 156 211 246 124 18 296 243 250 262 259 251 224 226 190 199 202 223 224 241 233 250 265 88 265 269 275 272 271 293 319 277 278 283 156 149 105 59 36 32 15
284 303 306 173 135 131 201 127 224 302 279 281 251 249 240 234 234 223 196 213 207 228 238 235 219 87 196 196 258 256 256 262 307 322 285 266 254 250 145 174 116 64 39 22 357
293 278 95 128 136 148 207 147 134 55 284 264 222 244 229 218 248 241 186 211 230 236 239 238 246 194 218 239 220 260 350 94 271 283 275 317 288 223 181 173 97 63 41 2 358
284 239 148 170 127 182 144 154 148 60 258 201 222 236 193 202 289 208 217 200 232 225 231 229 212 212 237 240 218 279 334 274 277 275 278 263 257 234 196 158 80 50 21 12 2
272 198 177 223 66 123 137 140 92 201 227 250 163 192 206 208 212 258 209 196 221 246 231 245 232 204 244 225 179 311 281 261 251 251 262 254 237 234 154 72 57 45 17 6 355
246 230 177 157 190 161 158 135 144 216 25 228 205 197 210 195 205 218 203 194 200 216 230 215 218 230 235 195 190 235 257 263 213 226 241 98 149 247 121 98 78 40 18 9 353
240 240 203 198 151 160 181 153 224 205 214 358 239 198 206 185 209 207 207 209 209 215 215 214 208 205 181 218 202 209 229 248 285 255 271 172 225 123 113 102 73 41 26 5 350
233 236 216 196 161 171 171 219 214 220 219 218 226 216 214 210 194 208 214 226 212 214 227 206 224 178 166 215 223 184 229 304 297 268 279 261 266 126 128 87 59 29 17 359 352
232 233 223 160 165 183 218 228 246 240 231 217 222 210 213 211 202 195 200 227 221 213 229 264 208 150 170 183 229 239 174 189 213 245 247 247 239 114 108 66 50 22 15 4 352
226 225 182 155 157 184 220 217 225 247 239 226 218 224 239 218 202 205 206 215 214 219 209 223 275 174 159 212 205 199 223 223 278 262 257 276 243 108 95 72 45 27 16 1 352
223 228 162 149 187 208 209 211 220 235 236 241 244 219 232 255 229 210 212 224 286 222 191 192 345 228 195 233 231 206 209 212 216 228 215 300 294 86 87 74 52 25 7 1 358
216 204 169 170 201 210 223 225 228 230 229 223 227 211 218 228 245 265 218 214 232 178 171 172 216 229 195 190 259 239 219 213 226 246 253 246 193 114 93 68 56 25 10 2 353
190 198 205 193 210 210 218 220 224 225 241 232 231 223 226 222 206 226 249 222 255 211 93 183 265 258 226 243 162 202 230 218 209 218 241 222 257 243 52 40 26 21 5 358 346
207 214 205 174 195 209 214 219 220 231 228 235 232 222 221 223 211 207 205 177 247 112 356 210 224 266 258 272 192 198 216 219 210 198 228 264 312 2 32 25 19 18 356 350 342
206 200 204 203 203 207 216 216 222 218 223 220 225 214 224 207 205 202 199 177 174 177 212 219 250 223 225 250 256 258 225 225 220 217 228 243 260 55 26 19 16 16 357 343 343
204 226 244 216 203 192 215 217 218 223 217 232 223 232 226 212 205 237 190 163 145 161 167 154 231 186 222 221 242 245 229 227 223 227 238 256 295 41 18 9 26 12 349 340 344